User: anonymous   Login
Location: ????????
(54.9045°N, 39.1041°E)
Time: 12:12:27
(UTC+00:00)
Language:

EO 1 Delta rocket - Orbit

View from above orbital plane
View from above orbital plane
View from above satellite
View from above satellite

Ground track
Ground track

The orbit data is extracted from the following two-line orbital elements,

1 26622U 00075D   24171.79375204  .00000710  00000-0  64916-3 0  9999
2 26622  95.4353 101.0503 0715315 320.7536  84.8728 13.04769249122408
Epoch (UTC): 19 June 2024 19:03:00
Eccentricity: 0.0715315
inclination: 95.4353°
perigee height: 698 km
apogee height: 1788 km
right ascension of ascending node: 101.0503°
argument of perigee: 320.7536°
revolutions per day: 13.04769249
mean anomaly at epoch: 84.8728°
orbit number at epoch: 12240

The dashed part of the orbit path shows where the satellite is in the earth's shadow,  

DLR